Simultaneous Nadir Overpasses (SNOs) Predictions

Prediction of SNOs between GOES-15 and TERRA Satellite Orbit:

Table of predicted SNOs for the next 14.0 days since TLE Epoch: 2/1/2014
Index Date Time (GOES-15) GOES-15 Lat,Lon TERRA Lat,Lon Distance(km) Time Diff (sec)
1 02/02/2014 07:15:37 -0.06,-135.36 0.65,-131.86 397.18 80
2 02/02/2014 19:39:27 0.07,-135.40 0.44,-137.00 182.73 80
3 02/04/2014 19:24:04 0.07,-135.42 -0.23,-133.92 169.99 80
4 02/05/2014 07:47:56 -0.08,-135.39 -0.88,-139.06 417.91 80
5 02/07/2014 07:34:44 -0.07,-135.41 -0.16,-135.87 52.33 80
6 02/09/2014 07:18:28 -0.07,-135.41 0.55,-132.57 323.59 80
7 02/09/2014 19:41:58 0.07,-135.45 0.51,-137.63 246.99 80
8 02/11/2014 19:25:12 0.07,-135.45 -0.21,-134.20 142.16 80
9 02/12/2014 07:48:42
